[Iaude] MPEC B94: 2017 BU6 [a=2.04,e=0.51,i=4.1,H=22.3]

mpec at si.edu mpec at si.edu
Sat Jan 28 08:25:24 EST 2017


M.P.E.C. 2017-B94                                Issued 2017 Jan. 28, 13:21 UT
 
     The Minor Planet Electronic Circulars contain information on unusual
         minor planets and routine data on comets.  They are published
    on behalf of Division F of the International Astronomical Union by the
          Minor Planet Center, Smithsonian Astrophysical Observatory,
                          Cambridge, MA 02138, U.S.A.

             Prepared using the Tamkin Foundation Computer Network

                              MPC at CFA.HARVARD.EDU
            URL http://www.minorplanetcenter.net/    ISSN 1523-6714


                                   2017 BU6
 
Observations:
     K17B06U* C2017 01 26.40913 10 01 15.68 +23 27 17.6          20.2 VqEB094G96
     K17B06U  C2017 01 26.42250 10 01 17.54 +23 27 33.4          20.3 VqEB094G96
     K17B06U  C2017 01 26.42928 10 01 18.56 +23 27 40.4          20.1 VqEB094G96
     K17B06U  C2017 01 26.43371 10 01 19.15 +23 27 46.7          20.2 VqEB094G96
     K17B06U  C2017 01 26.51474 10 01 31.03 +23 29 21.6          20.4 VqEB094G96
     K17B06U  C2017 01 26.51881 10 01 31.64 +23 29 27.1          20.4 VqEB094G96
     K17B06U  C2017 01 26.52284 10 01 32.26 +23 29 31.2          20.5 VqEB094G96
     K17B06U  C2017 01 26.52673 10 01 32.85 +23 29 36.3          20.4 VqEB094G96
     K17B06U KC2017 01 27.02987 10 02 55.29 +23 39 54.5          19.7 RoEB094K88
     K17B06U KC2017 01 27.03402 10 02 55.91 +23 39 59.7          19.5 RoEB094K88
     K17B06U KC2017 01 27.03817 10 02 56.53 +23 40 05.0          19.7 RoEB094K88
     K17B06U  C2017 01 27.17421 10 03 21.18 +23 42 56.6          20.3 rREB094G45
     K17B06U  C2017 01 27.18366 10 03 22.65 +23 43 10.2          20.7 rREB094G45
     K17B06U  C2017 01 27.18372 10 03 22.68 +23 43 09.8          20.3 rREB094G45
     K17B06U  C2017 01 27.18841 10 03 23.39 +23 43 16.2          20.2 rREB094G45
     K17B06U  C2017 01 27.19310 10 03 24.15 +23 43 21.8          20.6 rREB094G45
     K17B06U  C2017 01 27.19317 10 03 24.17 +23 43 22.2          20.7 rREB094G45
     K17B06U  C2017 01 27.31414 10 03 42.92 +23 46 02.9          19.9 RoEB094926
     K17B06U  C2017 01 27.32191 10 03 44.09 +23 46 12.9          20.0 RoEB094926
     K17B06U  C2017 01 27.32973 10 03 45.29 +23 46 22.9          20.0 RoEB094926
     K17B06U  C2017 01 27.41761 10 03 58.44 +23 48 14.1          20.6 VqEB094G96
     K17B06U  C2017 01 27.42094 10 03 58.96 +23 48 18.2          20.4 VqEB094G96
     K17B06U  C2017 01 27.42372 10 03 59.35 +23 48 22.0          20.3 VqEB094G96
     K17B06U  C2017 01 27.42668 10 03 59.79 +23 48 25.1          19.9 VqEB094G96
     K17B06U HC2017 01 27.48187 10 04 08.29 +23 49 33.9          20.0 RoEB094691
     K17B06U HC2017 01 27.50126 10 04 11.22 +23 49 57.8          20.2 RoEB094691
     K17B06U HC2017 01 27.52065 10 04 14.31 +23 50 21.7          20.1 RoEB094691
     K17B06U KC2017 01 27.88386 10 05 18.66 +23 58 02.2          19.9 RoEB094K51
     K17B06U KC2017 01 27.88714 10 05 19.19 +23 58 06.5          19.8 RoEB094K51
     K17B06U KC2017 01 27.89039 10 05 19.72 +23 58 11.2          19.7 RoEB094K51
     K17B06U  C2017 01 28.30255 10 06 29.70 +24 07 24.9          20.2 VqEB094G96
     K17B06U  C2017 01 28.30538 10 06 30.11 +24 07 28.8          20.5 VqEB094G96
     K17B06U  C2017 01 28.30797 10 06 30.54 +24 07 31.8          20.4 VqEB094G96
     K17B06U  C2017 01 28.31098 10 06 30.99 +24 07 36.2          20.6 VqEB094G96
 
Observer details:
691 Steward Observatory, Kitt Peak.  Observer J. V. Scotti.  0.9-m f/3
    reflector + CCD.
926 Tenagra II Observatory.  Observers M. Schwartz, P. R. Holvorcem.  Measurer
    M. Schwartz.  0.81-m f/7 Ritchey-Chretien + CCD.
G45 Space Surveillance Telescope, Atom Site.  Observers M. Blythe, R. Brungard,
    P. Festler, T. McVey, J. Paige, G. Spitz.  Measurers M. Cornell, A. Klein,
    J. Ruprecht, G. Ushomirsky, J. Varey, D. Woods.  3.5-m f/1 reflector + CCD.
G96 Mt. Lemmon Survey.  Observers D. C. Fuls, R. A. Kowalski.  Measurers
    E. J. Christensen, D. C. Fuls, A. R. Gibbs, A. D. Grauer, J. A. Johnson,
    R. A. Kowalski, S. M. Larson, G. J. Leonard, R. G. Matheny, R. L. Seaman,
    F. C. Shelly.  1.5-m reflector + 10K CCD.
K51 Osservatorio del Celado, Castello Tesino.  Observers G. Favero, R. Furgoni.
    Measurer R. Furgoni.  0.80-m f/4 reflector + CCD.
K88 GINOP-KHK, Piszkesteto.  Observer K. Sarneczky.  0.60-m Schmidt + CCD.
 
Orbital elements:
2017 BU6                                                 Earth MOID = 0.0650 AU
Epoch 2017 Feb. 16.0 TT = JDT 2457800.5                 MPC
M 347.22438              (2000.0)            P               Q
n   0.33950711     Peri.   92.90609     -0.97477701     +0.21191582
a   2.0350268      Node    99.33595     -0.22235613     -0.89520722
e   0.5145647      Incl.    4.06857     -0.01917112     -0.39204046
P   2.90           H   22.3           G   0.15           U   8
Residuals in seconds of arc
170126 G96  0.8+  0.4+    170127 G45  0.3-  0.6+    170127 691  0.4+  0.3-
170126 G96  0.1-  0.1+    170127 G45  0.0   0.1+    170127 691  0.5-  0.2-
170126 G96  0.4+  1.0-    170127 G45  0.4-  0.2+    170127 691  0.4+  0.1+
170126 G96  0.3-  0.1+    170127 G45  0.0   0.4-    170127 K51  0.1-  0.1+
170126 G96  0.3-  0.4-    170127 G45  0.1+  0.1-    170127 K51  0.1-  0.1-
170126 G96  0.3-  0.4+    170127 926  0.4+  0.3+    170127 K51  0.0   0.2+
170126 G96  0.1-  0.2-    170127 926  0.4+  0.2+    170128 G96  0.4+  0.1+
170126 G96  0.0   0.4+    170127 926  0.7+  0.1+    170128 G96  0.2-  0.2+
170127 K88  0.2-  0.0     170127 G96  0.1-  0.0     170128 G96  0.1+  0.4-
170127 K88  0.3-  0.0     170127 G96  0.2+  0.1-    170128 G96  0.3-  0.1-
170127 K88  0.4-  0.2+    170127 G96  0.3-  0.3+
170127 G45  0.0   0.4-    170127 G96  0.4-  0.3-

Ephemeris:
2017 BU6                 a,e,i = 2.04, 0.51, 4                   q = 0.9879
Date    TT    R. A. (2000) Decl.     Delta      r     Elong.  Phase     V
2016 12 29    09 10 30.1 +18 28 04   0.4881  1.4039   142.9    25.0    22.6
...
2017 01 13    09 33 24.9 +20 07 55   0.3422  1.2979   153.1    20.1    21.5
...
2017 01 21    09 48 31.2 +21 50 31   0.2761  1.2437   157.5    17.6    20.9
...
2017 01 27    10 02 50.5 +23 39 32   0.2317  1.2045   159.5    16.6    20.4
2017 01 28    10 05 36.6 +24 00 52   0.2248  1.1982   159.6    16.6    20.3
2017 01 29    10 08 31.0 +24 23 11   0.2180  1.1919   159.7    16.6    20.3
...
2017 02 04    10 29 41.0 +26 59 08   0.1798  1.1552   158.7    18.0    19.8
...
2017 02 12    11 14 06.8 +31 26 29   0.1366  1.1101   152.5    24.2    19.3
...
2017 02 27    14 22 14.9 +36 12 41   0.08877 1.0408   122.5    53.3    19.1

A. U. Tomatic                (C) Copyright 2017 MPC           M.P.E.C. 2017-B94




More information about the Iaude mailing list